Date String (YYYY-MM-DD hh:mm:ss) UTC,Instrument flags,Ambient pressure (hPa),Sample flow (lpm),Bypass flow (lpm),Sample temperature (°C),Ambient temperature (°C),ASC tube jacket temperature (°C),LED temperature (°C),Box temperature (°C),Sample RH (%),Span deviation,Mass concentration (μg/m³),Mass concentration (μg/m³),Mass concentration (μg/m³)
DateTimeUTC,F1_M11,P_M11,Q1_M11,Q2_M11,T1_M11,T2_M11,T3_M11,T4_M11,T5_M11,U1_M11,ZSPAN_M11,X0_M11,X2_M11,X1_M11
2022-03-04 01:00:00,,0823.4,5.00,0.00,29.8,26.7,00.0,39.0,31.3,11.8,-001.6,0024.87,0012.75,0011.44
2022-03-04 01:01:00,,0823.4,4.98,0.00,29.8,27.1,00.0,39.0,31.3,11.7,-001.2,0024.55,0012.74,0011.42
2022-03-04 01:02:00,,0823.4,5.02,0.00,29.8,27.5,00.0,38.9,31.4,11.7,-000.8,0024.52,0012.71,0011.41
2022-03-04 01:03:00,,0823.4,5.00,0.00,29.8,27.8,00.0,38.9,31.4,11.8,0000.5,0024.82,0012.72,0011.39
2022-03-04 01:04:00,,0823.3,5.00,0.00,29.8,28.0,00.0,38.9,31.5,12.0,0000.9,0024.76,0012.73,0011.36
2022-03-04 01:05:00,,0823.3,4.99,0.00,29.8,28.2,00.0,38.8,31.5,12.0,0001.5,0023.70,0012.71,0011.35
2022-03-04 01:06:00,,0823.4,5.01,0.00,29.8,28.4,00.0,38.8,31.6,12.1,0001.2,0023.56,0012.67,0011.35
2022-03-04 01:07:00,,0823.3,5.00,0.00,29.8,28.5,00.0,38.8,31.6,11.9,0001.4,0023.27,0012.62,0011.37
2022-03-04 01:08:00,,0823.3,5.00,0.00,29.9,28.6,00.0,38.8,31.6,11.6,0000.7,0023.72,0012.67,0011.39
2022-03-04 01:09:00,,0823.4,5.00,0.00,29.9,28.7,00.0,38.8,31.6,11.4,0000.1,0022.69,0012.63,0011.38
2022-03-04 01:10:00,,0823.3,4.99,0.00,29.9,28.8,00.0,38.9,31.6,11.3,-000.4,0023.36,0012.55,0011.35
2022-03-04 01:11:00,,0823.3,5.00,0.00,29.9,28.9,00.0,38.9,31.7,11.2,0000.0,0023.38,0012.45,0011.31
2022-03-04 01:12:00,,0823.3,5.00,0.00,29.9,28.9,00.0,38.9,31.7,11.0,0000.2,0023.59,0012.39,0011.27
2022-03-04 01:13:00,,0823.3,5.00,0.00,29.9,28.9,00.0,38.9,31.7,11.0,0000.4,0023.58,0012.35,0011.20
2022-03-04 01:14:00,,0823.3,5.00,0.00,29.9,29.0,00.0,38.9,31.7,10.8,-000.3,0023.19,0012.24,0011.12
2022-03-04 01:15:00,,0823.4,5.02,0.00,30.0,29.0,00.0,38.9,31.7,10.8,-000.8,0022.91,0012.09,0011.03
2022-03-04 01:16:00,,0823.3,4.99,0.00,30.0,29.1,00.0,38.9,31.7,10.7,-001.0,0022.82,0011.99,0010.93
2022-03-04 01:17:00,,0823.3,5.01,0.00,30.0,29.1,00.0,38.9,31.8,10.6,-001.2,0022.81,0011.84,0010.80
2022-03-04 01:18:00,,0823.4,5.00,0.00,30.0,29.1,00.0,38.9,31.7,10.6,-001.2,0023.00,0011.79,0010.69
2022-03-04 01:19:00,,0823.4,4.99,0.00,30.0,29.1,00.0,38.9,31.8,10.7,-000.7,0023.18,0011.67,0010.56
2022-03-04 01:20:00,,0823.4,5.01,0.00,30.0,29.1,00.0,38.9,31.8,10.6,-000.6,0023.69,0011.56,0010.44
2022-03-04 01:21:00,,0823.3,5.01,0.00,30.0,29.2,00.0,39.0,31.8,10.6,-000.6,0024.38,0011.46,0010.33
2022-03-04 01:22:00,,0823.3,4.99,0.00,30.0,29.2,00.0,39.0,31.8,10.6,-000.8,0024.06,0011.43,0010.25
2022-03-04 01:23:00,,0823.3,4.99,0.00,30.1,29.2,00.0,39.0,31.8,10.5,-000.9,0025.68,0011.45,0010.18
2022-03-04 01:24:00,,0823.3,5.00,0.00,30.1,29.2,00.0,39.0,31.8,10.4,-001.0,0026.33,0011.37,0010.13
2022-03-04 01:25:00,,0823.3,4.99,0.00,30.1,29.2,00.0,39.0,31.8,10.4,-001.0,0026.99,0011.36,0010.08
2022-03-04 01:26:00,,0823.4,5.01,0.00,30.1,29.2,00.0,39.0,31.8,10.5,-000.4,0026.79,0011.38,0010.09
2022-03-04 01:27:00,,0823.4,4.99,0.00,30.1,29.2,00.0,39.0,31.8,10.4,-000.0,0027.23,0011.48,0010.10
2022-03-04 01:28:00,,0823.4,5.00,0.00,30.1,29.2,00.0,39.0,31.8,10.4,0000.1,0028.46,0011.54,0010.13
2022-03-04 01:29:00,,0823.4,4.99,0.00,30.1,29.2,00.0,39.0,31.8,10.4,0000.1,0027.76,0011.55,0010.16
2022-03-04 01:30:00,,0823.4,5.02,0.00,30.1,29.3,00.0,39.1,31.9,10.6,-000.1,0027.13,0011.63,0010.21
2022-03-04 01:31:00,,0823.4,5.00,0.00,30.1,29.3,00.0,39.1,31.8,10.4,0000.1,0027.06,0011.73,0010.29
2022-03-04 01:32:00,,0823.4,5.00,0.00,30.1,29.3,00.0,39.1,31.9,10.5,0000.4,0027.35,0011.82,0010.36
2022-03-04 01:33:00,,0823.4,5.00,0.00,30.1,29.3,00.0,39.1,31.9,10.4,0000.4,0028.66,0011.93,0010.43
2022-03-04 01:34:00,,0823.4,5.00,0.00,30.1,29.3,00.0,39.1,31.9,10.5,0000.6,0028.97,0011.96,0010.48
2022-03-04 01:35:00,,0823.4,4.98,0.00,30.2,29.3,00.0,39.1,31.9,10.5,0000.3,0028.19,0012.01,0010.54
2022-03-04 01:36:00,,0823.4,5.02,0.00,30.2,29.3,00.0,39.1,31.9,10.6,0000.4,0027.38,0012.09,0010.61
2022-03-04 01:37:00,,0823.4,5.00,0.00,30.2,29.3,00.0,39.1,31.9,10.6,-000.1,0027.50,0012.16,0010.67
2022-03-04 01:38:00,,0823.4,5.00,0.00,30.2,29.3,00.0,39.1,31.9,10.6,-000.3,0027.82,0012.12,0010.72
2022-03-04 01:39:00,,0823.4,5.00,0.00,30.2,29.3,00.0,39.2,31.9,10.6,-000.1,0026.99,0012.16,0010.81
2022-03-04 01:40:00,,0823.4,4.99,0.00,30.2,29.3,00.0,39.2,32.0,10.7,-000.2,0028.15,0012.21,0010.87
2022-03-04 01:41:00,,0823.4,5.01,0.00,30.2,29.3,00.0,39.2,32.0,10.7,-000.1,0028.06,0012.24,0010.92
2022-03-04 01:42:00,,0823.4,4.98,0.00,30.2,27.6,00.0,39.1,31.6,10.7,-000.1,0028.38,0012.25,0010.97
2022-03-04 01:43:00,,0823.4,5.02,0.00,30.0,26.2,00.0,39.1,31.2,10.8,-000.1,0028.09,0012.32,0011.03
2022-03-04 01:44:00,,0823.3,5.00,0.00,29.9,26.3,00.0,39.1,31.2,10.9,0000.5,0027.25,0012.37,0011.09
2022-03-04 01:45:00,,0823.4,4.99,0.00,29.8,26.7,00.0,39.0,31.2,11.0,0000.8,0026.53,0012.44,0011.14
2022-03-04 01:46:00,,0823.3,5.01,0.00,29.7,27.1,00.0,38.9,31.3,11.0,0000.9,0026.59,0012.51,0011.19
2022-03-04 01:47:00,,0823.3,4.99,0.00,29.7,27.5,00.0,38.9,31.3,11.0,0001.1,0027.12,0012.55,0011.23
2022-03-04 01:48:00,,0823.3,5.02,0.00,29.7,27.8,00.0,38.9,31.3,11.1,0001.7,0027.20,0012.59,0011.27
2022-03-04 01:49:00,,0823.3,4.99,0.00,29.7,28.0,00.0,38.8,31.4,11.1,0001.5,0027.53,0012.63,0011.31
2022-03-04 01:50:00,,0823.2,5.01,0.00,29.8,28.2,00.0,38.8,31.4,11.0,0000.6,0026.87,0012.65,0011.32
2022-03-04 01:51:00,,0823.2,4.99,0.00,29.8,28.3,00.0,38.8,31.4,11.1,-000.4,0026.27,0012.70,0011.36
2022-03-04 01:52:00,,0823.2,5.01,0.00,29.8,28.4,00.0,38.8,31.4,11.1,-000.9,0027.45,0012.72,0011.38
2022-03-04 01:53:00,,0823.2,5.00,0.00,29.8,28.5,00.0,38.8,31.4,11.1,-001.2,0027.78,0012.79,0011.40
2022-03-04 01:54:00,,0823.2,5.00,0.00,29.8,28.6,00.0,38.8,31.4,11.1,-001.6,0027.52,0012.80,0011.41
2022-03-04 01:55:00,,0823.2,4.99,0.00,29.8,28.7,00.0,38.8,31.5,11.1,-002.2,0029.84,0012.79,0011.44
2022-03-04 01:56:00,,0823.2,5.01,0.00,29.8,28.7,00.0,38.8,31.5,11.1,-002.3,0029.81,0012.80,0011.48
2022-03-04 01:57:00,,0823.2,4.99,0.00,29.8,28.8,00.0,38.8,31.5,11.1,-002.1,0030.22,0012.81,0011.52
2022-03-04 01:58:00,,0823.3,5.02,0.00,29.8,28.8,00.0,38.8,31.5,11.0,-002.5,0030.42,0012.85,0011.57
2022-03-04 01:59:00,,0823.2,4.99,0.00,29.8,28.8,00.0,38.8,31.5,11.0,-002.6,0031.93,0012.85,0011.58
